sat.trackr.live / text

‹ back to catalog

TANSAT

NORAD 41898 · 2016-081A

PAYLOAD ACTIVE UNKNOWN

§ Identity

Operator
Country
PRC
Launch date
2016-12-21
Launch site
JSC
Launch vehicle
Mass (kg)
RCS (m²)
1.42

External: N2YO · Heavens-Above · Gunter

§ Orbital elements

Epoch: 2026-05-25T05:17:20.659200Z

Period
98.64 min
Inclination
98.5370°
Eccentricity
0.0021169
Mean motion
14.59927843 rev/d
Perigee alt
678.4 km
Apogee alt
708.4 km
Semi-major
7,071.5 km
B*
8.5539e-5
RAAN
144.8008°
Arg perigee
23.6014°
Mean anomaly
336.6151°
Rev number
50,127

§ Raw data

TANSAT1 41898U 16081A   26145.22037800  .00000360  00000+0  85539-4 0  99982 41898  98.5370 144.8008 0021169  23.6014 336.6151 14.59927843501276

JSON: /api/v1/satellites/41898 · /tle

For live sub-satellite position, see the globe view (requires WebGL).

§ Visibility from observer

Set your observer location to see the next 7 days of passes ≥ 10°. The values pass through the URL so the page stays shareable.

No JS? Fill the form by hand. The geolocation button needs JavaScript.

§ Radio — SatNOGS DB

ModeDescriptionDownlinkUplink
FM Mode S 2.218 GHz

1 transmitter · refreshed weekly from db.satnogs.org